GW3275 Weather Reports


time (UTC)temp
C
wind
direction
speed
KPH
gust
KPH
rain 1hr
cm
rain 24hr
cm
rain mn
cm
humidity
%
barometer
mb
20260505152916 11 21 20.9 30.6 0.00 0.00 0.00 56 1011.0
20260505152413 12 53 9.7 16.1 0.00 0.00 0.00 55 1011.0
20260505151907 12 13 19.3 24.1 0.00 0.00 0.00 54 1010.9
20260505151358 12 26 11.3 19.3 0.00 0.00 0.00 54 1011.0
20260505150855 11 25 11.3 24.1 0.00 0.00 0.00 56 1010.9
20260505150352 12 16 14.5 19.3 0.00 0.00 0.00 55 1010.9
20260505140317 11 20 30.6 35.4 0.00 0.00 0.00 52 1009.7
20260505130240 11 5 35.4 41.8 0.00 0.00 0.00 53 1009.0
20260505124731 11 6 30.6 38.6 0.00 0.00 0.00 54 1008.4
20260505124228 11 28 45.1 57.9 0.00 0.00 0.00 54 1008.5
20260505123723 11 1 30.6 35.4 0.00 0.00 0.00 54 1008.7
20260505123220 11 4 37.0 43.5 0.00 0.00 0.00 54 1008.7
20260505122717 11 7 35.4 43.5 0.00 0.00 0.00 55 1008.6
20260505122214 11 3 32.2 35.4 0.00 0.00 0.00 55 1008.5
20260505121710 11 10 24.1 30.6 0.00 0.00 0.00 55 1008.2
20260505121207 11 9 30.6 38.6 0.00 0.00 0.00 55 1008.0
20260505120704 11 9 30.6 35.4 0.00 0.00 0.00 54 1008.3
20260505120159 12 12 27.4 30.6 0.00 0.00 0.00 54 1008.3
20260505115653 12 355 35.4 41.8 0.00 0.00 0.00 54 1007.9
20260505115151 12 358 29.0 35.4 0.00 0.00 0.00 55 1007.9
20260505114648 12 358 22.5 30.6 0.00 0.00 0.00 55 1007.5
20260505114144 12 356 19.3 24.1 0.00 0.00 0.00 55 1007.6
20260505113641 12 350 22.5 27.4 0.00 0.00 0.00 55 1007.5
20260505113137 12 5 33.8 43.5 0.00 0.00 0.00 55 1007.5
20260505112633 12 337 25.7 30.6 0.00 0.00 0.00 56 1007.3
20260505112132 12 359 22.5 27.4 0.00 0.00 0.00 57 1007.4
20260505111626 12 5 29.0 35.4 0.00 0.00 0.00 57 1007.3
20260505111122 12 15 41.8 49.9 0.00 0.00 0.00 58 1007.0
20260505110618 12 9 33.8 38.6 0.00 0.00 0.00 58 1007.2
20260505110115 12 13 35.4 46.7 0.00 0.00 0.00 59 1007.3
20260505102051 15 339 37.0 46.7 0.00 0.00 0.00 60 1006.8
20260505101549 15 347 33.8 43.5 0.00 0.00 0.00 57 1006.6
20260505101045 15 322 24.1 35.4 0.00 0.00 0.00 55 1006.5
20260505100542 15 326 20.9 27.4 0.00 0.00 0.00 55 1006.3
20260505100039 15 340 30.6 35.4 0.00 0.00 0.00 53 1006.3
20260505095535 15 316 32.2 35.4 0.00 0.00 0.00 50 1006.2
20260505095032 15 359 27.4 41.8 0.00 0.00 0.00 47 1006.0
20260505094528 16 343 25.7 33.8 0.00 0.00 0.00 44 1005.8
20260505094024 16 304 27.4 38.6 0.00 0.00 0.00 39 1005.7
20260505093521 16 323 17.7 30.6 0.00 0.00 0.00 35 1005.4
20260505093019 16 313 19.3 27.4 0.00 0.00 0.00 32 1005.4
20260505092516 17 338 24.1 30.6 0.00 0.00 0.00 31 1005.2
20260505092014 17 292 20.9 30.6 0.00 0.00 0.00 30 1005.2
20260505091511 16 321 16.1 22.5 0.00 0.00 0.00 31 1005.3
20260505091009 16 311 9.7 11.3 0.00 0.00 0.00 32 1005.2
20260505090506 16 290 9.7 14.5 0.00 0.00 0.00 33 1004.8
20260505090004 16 288 14.5 16.1 0.00 0.00 0.00 33 1004.7
20260505085502 16 286 9.7 11.3 0.00 0.00 0.00 32 1004.7
20260505085000 17 281 17.7 19.3 0.00 0.00 0.00 32 1004.7
20260505084458 16 295 9.7 11.3 0.00 0.00 0.00 33 1004.5
20260505083955 17 280 6.4 8.0 0.00 0.00 0.00 32 1004.6
20260505083452 17 287 11.3 14.5 0.00 0.00 0.00 31 1004.6
20260505082949 17 280 8.0 11.3 0.00 0.00 0.00 30 1004.4
20260505082444 17 259 9.7 11.3 0.00 0.00 0.00 30 1004.3
20260505081942 17 251 9.7 16.1 0.00 0.00 0.00 30 1004.5
20260505081438 17 259 12.9 22.5 0.00 0.00 0.00 30 1004.5
20260505080935 18 261 6.4 8.0 0.00 0.00 0.00 30 1004.5
20260505080431 17 264 11.3 14.5 0.00 0.00 0.00 30 1004.6
20260505075926 17 269 6.4 8.0 0.00 0.00 0.00 31 1004.9
20260505075424 17 249 6.4 11.3 0.00 0.00 0.00 33 1004.8
20260505074921 17 268 3.2 3.2 0.00 0.00 0.00 32 1004.7
20260505074418 18 263 9.7 11.3 0.00 0.00 0.00 31 1004.7
20260505073915 18 282 11.3 11.3 0.00 0.00 0.00 31 1005.1
20260505073413 18 258 6.4 8.0 0.00 0.00 0.00 31 1004.7
20260505072910 18 270 6.4 8.0 0.00 0.00 0.00 30 1004.9
20260505072406 18 285 12.9 16.1 0.00 0.00 0.00 31 1005.1
20260505071902 19 272 6.4 8.0 0.00 0.00 0.00 29 1004.8
20260505071358 20 281 8.0 11.3 0.00 0.00 0.00 28 1004.9
20260505070857 20 250 9.7 14.5 0.00 0.00 0.00 28 1005.2
20260505070353 20 258 3.2 4.8 0.00 0.00 0.00 28 1005.1
20260505065848 20 252 4.8 4.8 0.00 0.00 0.00 28 1004.9
20260505065345 20 265 4.8 4.8 0.00 0.00 0.00 28 1004.9
20260505064842 20 272 6.4 11.3 0.00 0.00 0.00 27 1004.7
20260505064339 21 270 3.2 4.8 0.00 0.00 0.00 26 1004.9
20260505063838 21 266 9.7 14.5 0.00 0.00 0.00 26 1004.8
20260505063333 21 266 12.9 16.1 0.00 0.00 0.00 26 1004.7
20260505062830 21 290 14.5 16.1 0.00 0.00 0.00 26 1004.8
20260505062327 21 243 16.1 22.5 0.00 0.00 0.00 25 1004.6
20260505061824 21 258 11.3 16.1 0.00 0.00 0.00 25 1004.7
20260505061322 22 243 9.7 11.3 0.00 0.00 0.00 25 1004.6
20260505060820 22 286 11.3 22.5 0.00 0.00 0.00 25 1004.7
20260505060316 22 262 19.3 24.1 0.00 0.00 0.00 24 1004.9
20260505055812 22 250 16.1 19.3 0.00 0.00 0.00 24 1004.9
20260505055308 22 273 12.9 19.3 0.00 0.00 0.00 24 1005.2
20260505054806 22 246 14.5 22.5 0.00 0.00 0.00 24 1005.2
20260505054303 22 272 9.7 14.5 0.00 0.00 0.00 24 1005.1
20260505053801 23 240 11.3 14.5 0.00 0.00 0.00 24 1005.4
20260505053258 23 272 14.5 24.1 0.00 0.00 0.00 23 1004.8
20260505052755 23 260 16.1 19.3 0.00 0.00 0.00 23 1005.3
20260505052252 23 250 9.7 14.5 0.00 0.00 0.00 23 1004.9
20260505051748 23 288 16.1 22.5 0.00 0.00 0.00 23 1005.2
20260505051246 23 270 14.5 19.3 0.00 0.00 0.00 23 1005.2
20260505050744 22 238 11.3 19.3 0.00 0.00 0.00 24 1005.2
20260505050243 23 258 14.5 19.3 0.00 0.00 0.00 24 1005.2
20260505041712 23 224 14.5 22.5 0.00 0.00 0.00 23 1005.1
20260505041209 23 225 17.7 24.1 0.00 0.00 0.00 23 1005.1
20260505040706 23 223 14.5 19.3 0.00 0.00 0.00 23 1004.9
20260505040204 23 219 17.7 22.5 0.00 0.00 0.00 22 1004.7
20260505035700 23 260 14.5 27.4 0.00 0.00 0.00 21 1004.7
20260505035156 23 272 16.1 22.5 0.00 0.00 0.00 21 1005.1
20260505034653 23 271 20.9 30.6 0.00 0.00 0.00 20 1005.2
20260505034150 23 270 22.5 27.4 0.00 0.00 0.00 19 1004.8
20260505033646 23 253 11.3 27.4 0.00 0.00 0.00 20 1005.2
20260505033145 23 230 14.5 22.5 0.00 0.00 0.00 20 1004.9
20260505032643 23 258 6.4 14.5 0.00 0.00 0.00 19 1004.9
20260505032138 23 273 6.4 11.3 0.00 0.00 0.00 19 1004.9
20260505031636 23 262 11.3 19.3 0.00 0.00 0.00 19 1004.8
20260505031132 23 239 6.4 8.0 0.00 0.00 0.00 19 1004.8
20260505030629 24 254 8.0 11.3 0.00 0.00 0.00 19 1004.8
20260505030125 23 268 14.5 16.1 0.00 0.00 0.00 19 1004.6
20260505025621 23 255 1.6 4.8 0.00 0.00 0.00 19 1004.5
20260505025120 23 214 8.0 16.1 0.00 0.00 0.00 19 1004.9
20260505024617 23 259 6.4 14.5 0.00 0.00 0.00 19 1004.4
20260505024114 24 207 6.4 14.5 0.00 0.00 0.00 19 1004.5
20260505023611 24 233 12.9 22.5 0.00 0.00 0.00 18 1004.5
20260505023109 24 270 9.7 16.1 0.00 0.00 0.00 18 1004.4
20260505022606 24 229 6.4 14.5 0.00 0.00 0.00 19 1004.6
20260505022103 24 251 11.3 16.1 0.00 0.00 0.00 19 1004.6
20260505021600 24 247 6.4 11.3 0.00 0.00 0.00 19 1004.3
20260505021056 24 260 14.5 16.1 0.00 0.00 0.00 18 1004.5
20260505020556 25 252 6.4 11.3 0.00 0.00 0.00 18 1004.5
20260505020053 25 262 9.7 16.1 0.00 0.00 0.00 18 1004.4
20260505015550 25 253 4.8 8.0 0.00 0.00 0.00 18 1004.3
20260505015047 25 271 8.0 11.3 0.00 0.00 0.00 17 1004.4
20260505014544 26 257 14.5 24.1 0.00 0.00 0.00 17 1004.5
20260505014041 26 232 12.9 19.3 0.00 0.00 0.00 17 1004.2
20260505013538 26 235 12.9 19.3 0.00 0.00 0.00 17 1004.2
20260505013036 26 311 14.5 22.5 0.00 0.00 0.00 17 1004.1
20260505012534 26 254 12.9 19.3 0.00 0.00 0.00 17 1003.8
20260505012030 26 249 19.3 24.1 0.00 0.00 0.00 16 1004.2
20260505011526 26 250 16.1 19.3 0.00 0.00 0.00 16 1003.9
20260505011023 26 222 6.4 8.0 0.00 0.00 0.00 17 1004.2
20260505010518 27 234 8.0 14.5 0.00 0.00 0.00 17 1004.1
20260505010015 27 258 14.5 19.3 0.00 0.00 0.00 19 1004.2
20260505005512 26 264 1.6 4.8 0.00 0.00 0.00 24 1004.2
20260505005009 27 276 3.2 4.8 0.00 0.00 0.00 24 1004.2
20260505004506 27 255 12.9 16.1 0.00 0.00 0.00 24 1004.3
20260505004003 27 266 3.2 11.3 0.00 0.00 0.00 24 1004.5
20260505003500 27 254 4.8 8.0 0.00 0.00 0.00 23 1004.5
20260505002956 27 242 9.7 14.5 0.00 0.00 0.00 23 1004.2
20260505002452 27 268 9.7 14.5 0.00 0.00 0.00 23 1004.4
20260505001951 28 246 16.1 22.5 0.00 0.00 0.00 23 1004.5
20260505001448 28 269 0.0 3.2 0.00 0.00 0.00 22 1004.7
20260505000945 28 276 1.6 3.2 0.00 0.00 0.00 22 1004.6
20260505000443 28 234 4.8 16.1 0.00 0.00 0.00 22 1004.6
20260504235940 28 294 3.2 8.0 0.00 0.00 0.00 21 1004.8
20260504235437 28 260 16.1 30.6 0.00 0.00 0.00 21 1004.7
20260504234933 28 267 16.1 24.1 0.00 0.00 0.00 20 1004.8
20260504234431 28 259 20.9 24.1 0.00 0.00 0.00 19 1005.1
20260504233927 28 275 20.9 27.4 0.00 0.00 0.00 19 1005.1
20260504233423 28 246 16.1 24.1 0.00 0.00 0.00 19 1004.9
20260504232919 28 262 16.1 19.3 0.00 0.00 0.00 19 1004.9
20260504232417 28 252 19.3 22.5 0.00 0.00 0.00 20 1004.9
20260504231913 28 269 12.9 19.3 0.00 0.00 0.00 18 1005.1
20260504231404 28 270 24.1 27.4 0.00 0.00 0.00 18 1004.9
20260504230901 28 283 19.3 24.1 0.00 0.00 0.00 19 1004.8
20260504230358 29 274 20.9 27.4 0.00 0.00 0.00 19 1004.9
20260504225857 29 273 20.9 27.4 0.00 0.00 0.00 19 1004.8
20260504225353 29 261 22.5 33.8 0.00 0.00 0.00 20 1004.9
20260504224851 30 249 22.5 33.8 0.00 0.00 0.00 18 1004.8
20260504224347 30 264 17.7 27.4 0.00 0.00 0.00 18 1004.9
20260504223844 30 260 14.5 22.5 0.00 0.00 0.00 19 1005.1
20260504223339 30 219 25.7 35.4 0.00 0.00 0.00 19 1005.2
20260504222836 30 250 22.5 33.8 0.00 0.00 0.00 19 1005.1
20260504222333 29 239 14.5 19.3 0.00 0.00 0.00 20 1004.9
20260504221832 28 284 17.7 27.4 0.00 0.00 0.00 21 1004.9
20260504221328 28 286 16.1 22.5 0.00 0.00 0.00 20 1005.3
20260504220825 29 275 17.7 24.1 0.00 0.00 0.00 20 1005.3
20260504220322 29 247 19.3 27.4 0.00 0.00 0.00 19 1005.5
20260504215819 30 243 25.7 33.8 0.00 0.00 0.00 18 1005.4
20260504215315 29 265 27.4 35.4 0.00 0.00 0.00 19 1005.5
20260504214811 29 275 19.3 22.5 0.00 0.00 0.00 19 1005.6
20260504214308 30 331 12.9 19.3 0.00 0.00 0.00 19 1005.5
20260504213805 29 176 16.1 22.5 0.00 0.00 0.00 20 1005.7
20260504213301 29 289 0.0 3.2 0.00 0.00 0.00 22 1005.5
20260504212759 29 250 22.5 24.1 0.00 0.00 0.00 20 1006.0
20260504212254 29 262 27.4 35.4 0.00 0.00 0.00 19 1006.2
20260504211752 29 261 20.9 27.4 0.00 0.00 0.00 19 1006.4
20260504211248 29 277 22.5 38.6 0.00 0.00 0.00 19 1006.2
20260504210746 29 243 33.8 43.5 0.00 0.00 0.00 21 1005.9
20260504210243 29 273 17.7 30.6 0.00 0.00 0.00 21 1006.0
20260504205740 30 286 12.9 30.6 0.00 0.00 0.00 21 1006.2
20260504205238 30 295 17.7 30.6 0.00 0.00 0.00 20 1006.2
20260504204736 30 276 22.5 27.4 0.00 0.00 0.00 20 1006.5
20260504204234 29 235 22.5 38.6 0.00 0.00 0.00 21 1006.5
20260504203733 29 244 20.9 33.8 0.00 0.00 0.00 20 1006.5
20260504203230 29 273 19.3 30.6 0.00 0.00 0.00 20 1006.4
20260504202729 28 296 22.5 33.8 0.00 0.00 0.00 21 1006.5
20260504202227 29 269 20.9 27.4 0.00 0.00 0.00 22 1006.6
20260504201724 28 298 19.3 30.6 0.00 0.00 0.00 22 1006.6
20260504201221 28 280 22.5 27.4 0.00 0.00 0.00 21 1006.6
20260504200719 28 332 11.3 16.1 0.00 0.00 0.00 21 1007.0
20260504200214 28 286 19.3 22.5 0.00 0.00 0.00 22 1006.7
20260504195711 28 294 29.0 33.8 0.00 0.00 0.00 21 1006.9
20260504195207 28 297 19.3 24.1 0.00 0.00 0.00 21 1007.0
20260504194704 28 277 24.1 30.6 0.00 0.00 0.00 20 1006.9
20260504194200 28 269 29.0 35.4 0.00 0.00 0.00 20 1007.4
20260504193657 28 306 22.5 27.4 0.00 0.00 0.00 20 1007.2
20260504193155 28 270 17.7 24.1 0.00 0.00 0.00 21 1007.5
20260504192652 28 303 22.5 30.6 0.00 0.00 0.00 21 1007.4
20260504192150 28 264 20.9 24.1 0.00 0.00 0.00 21 1007.5
20260504191648 28 266 11.3 16.1 0.00 0.00 0.00 21 1007.4
20260504191144 28 269 27.4 30.6 0.00 0.00 0.00 21 1007.4
20260504190641 28 269 20.9 27.4 0.00 0.00 0.00 21 1007.8
20260504190137 28 307 22.5 33.8 0.00 0.00 0.00 21 1007.8
20260504185634 28 280 22.5 30.6 0.00 0.00 0.00 21 1007.8
20260504185130 28 272 22.5 30.6 0.00 0.00 0.00 22 1007.7
20260504184626 28 304 16.1 16.1 0.00 0.00 0.00 21 1007.6
20260504184121 29 277 24.1 27.4 0.00 0.00 0.00 22 1007.9
20260504183619 28 283 16.1 19.3 0.00 0.00 0.00 21 1007.9
20260504183116 28 291 24.1 33.8 0.00 0.00 0.00 21 1007.9
20260504182614 28 279 11.3 24.1 0.00 0.00 0.00 23 1008.0
20260504182111 28 273 43.5 49.9 0.00 0.00 0.00 21 1008.2
20260504181609 28 302 20.9 30.6 0.00 0.00 0.00 23 1008.0
20260504181106 27 273 19.3 30.6 0.00 0.00 0.00 24 1008.3
20260504180605 28 276 30.6 33.8 0.00 0.00 0.00 23 1008.4
20260504180104 28 295 20.9 27.4 0.00 0.00 0.00 23 1008.3
20260504175600 28 303 25.7 35.4 0.00 0.00 0.00 24 1008.5
20260504175057 27 325 27.4 38.6 0.00 0.00 0.00 25 1008.4
20260504174555 28 335 25.7 30.6 0.00 0.00 0.00 24 1008.4
20260504174051 27 296 27.4 41.8 0.00 0.00 0.00 25 1008.7
20260504173548 27 315 16.1 22.5 0.00 0.00 0.00 24 1008.6
20260504173046 27 277 25.7 30.6 0.00 0.00 0.00 24 1008.7
20260504172542 27 312 24.1 33.8 0.00 0.00 0.00 24 1008.8
20260504172038 27 282 19.3 22.5 0.00 0.00 0.00 25 1009.3
20260504171535 28 282 22.5 35.4 0.00 0.00 0.00 24 1009.0
20260504171032 27 277 24.1 33.8 0.00 0.00 0.00 25 1009.2
20260504170528 27 279 16.1 22.5 0.00 0.00 0.00 26 1009.3